• In Deutschland
  • Länderverzeichnis
  • Für 7 Tage
  • Wassertemperatur
  • Satellitenkarten
  • Wetterkarte
  • Widgets
  • user-avatar
    Anmelden

    Stündliche Wetter Sondershausen

    Heute, 18 September, Dienstag

    Zeit Temperatur Niederschläge Wind Luftdruck Luftfeuchtigkeit
    00:00 +18°C° 0 mm 1 m/S 741 mmHg 60%
    01:00 +17°C° 0 mm 2 m/S 741 mmHg 58%
    02:00 +16°C° 0 mm 2 m/S 741 mmHg 59%
    03:00 +16°C° 0 mm 2 m/S 741 mmHg 61%
    04:00 +15°C° 0 mm 2 m/S 741 mmHg 62%
    05:00 +16°C° 0 mm 2 m/S 740 mmHg 64%
    06:00 +16°C° 0 mm 2 m/S 740 mmHg 66%
    07:00 +16°C° 0 mm 2 m/S 741 mmHg 66%
    08:00 +19°C° 0 mm 3 m/S 741 mmHg 61%
    09:00 +21°C° 0 mm 3 m/S 741 mmHg 56%
    10:00 +25°C° 0 mm 3 m/S 741 mmHg 52%
    11:00 +26°C° 0 mm 4 m/S 740 mmHg 47%
    12:00 +28°C° 0 mm 4 m/S 740 mmHg 43%
    13:00 +29°C° 0 mm 4 m/S 740 mmHg 38%
    14:00 +29°C° 0 mm 4 m/S 740 mmHg 39%
    15:00 +29°C° 0 mm 4 m/S 740 mmHg 40%
    16:00 +29°C° 0 mm 4 m/S 739 mmHg 41%
    17:00 +27°C° 0 mm 4 m/S 739 mmHg 47%
    18:00 +25°C° 0 mm 3 m/S 740 mmHg 54%
    19:00 +23°C° 0 mm 2 m/S 740 mmHg 61%
    20:00 +21°C° 0 mm 2 m/S 740 mmHg 64%
    21:00 +20°C° 0 mm 2 m/S 741 mmHg 67%
    22:00 +20°C° 0 mm 2 m/S 741 mmHg 70%
    23:00 +19°C° 0.1 mm 2 m/S 741 mmHg 74%

    Morgen, 19 September, Mittwoch

    Zeit Temperatur Niederschläge Wind Luftdruck Luftfeuchtigkeit
    00:00 +19°C° 0.1 mm 2 m/S 741 mmHg 77%
    01:00 +18°C° 0.1 mm 2 m/S 741 mmHg 81%
    02:00 +19°C° 0.2 mm 1 m/S 742 mmHg 83%
    03:00 +18°C° 0.2 mm 1 m/S 742 mmHg 84%
    04:00 +18°C° 0.2 mm 1 m/S 742 mmHg 86%
    05:00 +18°C° 0 mm 1 m/S 742 mmHg 85%
    06:00 +18°C° 0 mm 1 m/S 742 mmHg 85%
    07:00 +19°C° 0 mm 1 m/S 742 mmHg 85%
    08:00 +21°C° 0 mm 1 m/S 743 mmHg 77%
    09:00 +23°C° 0 mm 2 m/S 743 mmHg 69%
    10:00 +25°C° 0 mm 2 m/S 743 mmHg 61%
    11:00 +26°C° 0 mm 3 m/S 743 mmHg 56%
    12:00 +28°C° 0 mm 3 m/S 743 mmHg 51%
    13:00 +29°C° 0 mm 4 m/S 743 mmHg 46%
    14:00 +29°C° 0 mm 4 m/S 742 mmHg 46%
    15:00 +29°C° 0 mm 4 m/S 742 mmHg 46%
    16:00 +29°C° 0 mm 4 m/S 742 mmHg 46%
    17:00 +27°C° 0 mm 3 m/S 742 mmHg 52%
    18:00 +25°C° 0 mm 3 m/S 742 mmHg 59%
    19:00 +23°C° 0 mm 2 m/S 742 mmHg 65%
    20:00 +23°C° 0 mm 2 m/S 742 mmHg 68%
    21:00 +21°C° 0 mm 2 m/S 742 mmHg 70%
    22:00 +20°C° 0 mm 3 m/S 742 mmHg 72%
    23:00 +20°C° 0 mm 2 m/S 742 mmHg 76%

    übermorgen, 20 September, Donnerstag

    Zeit Temperatur Niederschläge Wind Luftdruck Luftfeuchtigkeit
    00:00 +19°C° 0 mm 2 m/S 742 mmHg 79%
    01:00 +18°C° 0 mm 2 m/S 742 mmHg 83%
    02:00 +18°C° 0 mm 2 m/S 742 mmHg 85%
    03:00 +17°C° 0 mm 2 m/S 742 mmHg 87%
    04:00 +17°C° 0 mm 2 m/S 742 mmHg 89%
    05:00 +18°C° 0 mm 1 m/S 742 mmHg 89%
    06:00 +18°C° 0 mm 1 m/S 742 mmHg 88%
    07:00 +18°C° 0 mm 1 m/S 743 mmHg 88%
    08:00 +19°C° 0 mm 2 m/S 743 mmHg 78%
    09:00 +21°C° 0 mm 3 m/S 743 mmHg 68%
    10:00 +24°C° 0 mm 3 m/S 743 mmHg 59%
    11:00 +25°C° 0 mm 4 m/S 742 mmHg 54%
    12:00 +27°C° 0 mm 5 m/S 742 mmHg 50%
    13:00 +28°C° 0 mm 5 m/S 742 mmHg 46%
    14:00 +28°C° 0 mm 5 m/S 741 mmHg 45%
    15:00 +28°C° 0 mm 5 m/S 741 mmHg 45%
    16:00 +28°C° 0 mm 5 m/S 740 mmHg 44%
    17:00 +26°C° 0 mm 4 m/S 740 mmHg 50%
    18:00 +24°C° 0 mm 3 m/S 740 mmHg 57%
    19:00 +21°C° 0 mm 2 m/S 739 mmHg 63%
    20:00 +20°C° 0 mm 2 m/S 739 mmHg 65%
    21:00 +19°C° 0 mm 2 m/S 739 mmHg 67%
    22:00 +19°C° 0 mm 2 m/S 739 mmHg 70%
    23:00 +19°C° 0 mm 3 m/S 738 mmHg 71%

    21 September, Freitag

    Zeit Temperatur Niederschläge Wind Luftdruck Luftfeuchtigkeit
    00:00 +19°C° 0 mm 3 m/S 738 mmHg 72%
    01:00 +18°C° 0 mm 3 m/S 737 mmHg 73%
    02:00 +19°C° 0 mm 4 m/S 737 mmHg 73%
    03:00 +19°C° 0 mm 4 m/S 736 mmHg 72%
    04:00 +19°C° 0 mm 5 m/S 736 mmHg 72%
    05:00 +20°C° 0 mm 5 m/S 736 mmHg 70%
    06:00 +20°C° 0 mm 5 m/S 735 mmHg 69%
    07:00 +20°C° 0 mm 5 m/S 735 mmHg 67%
    08:00 +21°C° 0.1 mm 6 m/S 735 mmHg 64%
    09:00 +22°C° 0.1 mm 7 m/S 734 mmHg 60%
    10:00 +23°C° 0.1 mm 8 m/S 734 mmHg 57%
    11:00 +23°C° 0 mm 8 m/S 734 mmHg 55%
    12:00 +24°C° 0 mm 8 m/S 734 mmHg 53%
    13:00 +24°C° 0 mm 8 m/S 734 mmHg 51%
    14:00 +21°C° 2.1 mm 8 m/S 734 mmHg 61%
    15:00 +17°C° 2.1 mm 7 m/S 734 mmHg 71%
    16:00 +14°C° 2.1 mm 7 m/S 734 mmHg 81%
    17:00 +13°C° 0.5 mm 6 m/S 735 mmHg 82%
    18:00 +11°C° 0.5 mm 6 m/S 736 mmHg 82%
    19:00 +12°C° 0.5 mm 5 m/S 737 mmHg 82%
    20:00 +10°C° 0.1 mm 5 m/S 738 mmHg 81%
    21:00 +9°C° 0.1 mm 5 m/S 739 mmHg 81%
    22:00 +9°C° 0.1 mm 5 m/S 740 mmHg 80%
    23:00 +8°C° 0 mm 5 m/S 740 mmHg 80%

    22 September, Samstag

    Zeit Temperatur Niederschläge Wind Luftdruck Luftfeuchtigkeit
    00:00 +8°C° 0 mm 5 m/S 741 mmHg 80%
    01:00 +7°C° 0 mm 5 m/S 742 mmHg 80%
    02:00 +7°C° 0 mm 5 m/S 742 mmHg 80%
    03:00 +7°C° 0 mm 5 m/S 742 mmHg 79%
    04:00 +7°C° 0 mm 5 m/S 743 mmHg 78%
    05:00 +7°C° 0 mm 6 m/S 743 mmHg 79%
    06:00 +7°C° 0 mm 6 m/S 744 mmHg 80%
    07:00 +8°C° 0 mm 6 m/S 744 mmHg 81%
    08:00 +9°C° 0 mm 6 m/S 745 mmHg 75%
    09:00 +11°C° 0 mm 6 m/S 745 mmHg 69%
    10:00 +13°C° 0 mm 6 m/S 745 mmHg 63%
    11:00 +14°C° 0 mm 6 m/S 745 mmHg 59%
    12:00 +15°C° 0 mm 5 m/S 745 mmHg 55%
    13:00 +16°C° 0 mm 5 m/S 745 mmHg 51%
    14:00 +15°C° 0.1 mm 5 m/S 745 mmHg 50%
    15:00 +15°C° 0.1 mm 5 m/S 745 mmHg 50%
    16:00 +15°C° 0.1 mm 5 m/S 745 mmHg 50%
    17:00 +14°C° 0 mm 4 m/S 745 mmHg 55%
    18:00 +12°C° 0 mm 3 m/S 745 mmHg 60%
    19:00 +10°C° 0 mm 2 m/S 745 mmHg 65%
    20:00 +10°C° 0 mm 2 m/S 745 mmHg 66%
    21:00 +9°C° 0 mm 2 m/S 746 mmHg 67%
    22:00 +9°C° 0 mm 2 m/S 746 mmHg 69%
    23:00 +9°C° 0 mm 2 m/S 746 mmHg 70%

    23 September, Sonntag

    Zeit Temperatur Niederschläge Wind Luftdruck Luftfeuchtigkeit
    00:00 +8°C° 0 mm 2 m/S 745 mmHg 71%
    01:00 +8°C° 0 mm 2 m/S 745 mmHg 73%
    02:00 +9°C° 0 mm 2 m/S 745 mmHg 73%
    03:00 +9°C° 0 mm 2 m/S 745 mmHg 74%
    04:00 +9°C° 0 mm 2 m/S 744 mmHg 75%
    05:00 +9°C° 0 mm 2 m/S 744 mmHg 75%
    06:00 +10°C° 0 mm 3 m/S 743 mmHg 74%
    07:00 +10°C° 0 mm 3 m/S 742 mmHg 74%
    08:00 +10°C° 0 mm 5 m/S 742 mmHg 68%
    09:00 +11°C° 0 mm 6 m/S 741 mmHg 62%
    10:00 +12°C° 0 mm 7 m/S 740 mmHg 57%
    11:00 +13°C° 0.2 mm 8 m/S 739 mmHg 59%
    12:00 +13°C° 0.2 mm 8 m/S 737 mmHg 61%
    13:00 +15°C° 0.2 mm 9 m/S 736 mmHg 63%
    14:00 +15°C° 0.7 mm 9 m/S 735 mmHg 66%
    15:00 +15°C° 0.7 mm 9 m/S 733 mmHg 69%
    16:00 +16°C° 0.7 mm 9 m/S 732 mmHg 72%
    17:00 +16°C° 0.3 mm 9 m/S 731 mmHg 74%
    18:00 +17°C° 0.3 mm 9 m/S 730 mmHg 76%
    19:00 +17°C° 0.3 mm 8 m/S 728 mmHg 78%
    20:00 +16°C° 0.9 mm 8 m/S 728 mmHg 77%
    21:00 +13°C° 0.9 mm 8 m/S 727 mmHg 76%
    22:00 +12°C° 0.9 mm 8 m/S 726 mmHg 75%
    23:00 +11°C° 0 mm 9 m/S 726 mmHg 73%
    Mehr zeigen